EZY26HM EDDH-EGKK

Flight info

Callsign EZY26HM
Flight time 1h 18m
Altitude 36000
Route WSN5G WSN N125 ONTAZ DCT GALSO Q63 ARREK Y4 TEBRA
Aircraft A320/M-SDE3FGHIRWY/LB1

Departure

Time 2026-04-26 15:48
Airport Hamburg Helmut Schmidt Airport (EDDH)

Arrival

Time 2026-04-26 17:07
Airport London Gatwick Airport (EGKK)
Time Latitude Longitude Altitude Speed Heading
2026-04-26 15:20 53.63115 10.00059 47 ft 0 kts 141°
2026-04-26 15:41 53.63123 10.00048 47 ft 4 kts 141°
2026-04-26 15:41 53.63142 10.00022 50 ft 2 kts 141°
2026-04-26 15:41 53.63159 10.00004 48 ft 4 kts 191°
2026-04-26 15:42 53.63176 10.00024 50 ft 3 kts 231°
2026-04-26 15:42 53.63178 10.00029 50 ft 0 kts 231°
2026-04-26 15:44 53.63172 10.00015 50 ft 4 kts 231°
2026-04-26 15:44 53.63137 9.99942 50 ft 9 kts 232°
2026-04-26 15:45 53.63024 9.99934 50 ft 8 kts 153°
2026-04-26 15:45 53.62979 9.99973 50 ft 7 kts 153°
2026-04-26 15:46 53.62885 9.99874 49 ft 12 kts 244°
2026-04-26 15:46 53.62858 9.99778 48 ft 5 kts 248°
2026-04-26 15:46 53.62870 9.99741 47 ft 0 kts 331°
2026-04-26 15:47 53.62968 9.99652 49 ft 49 kts 332°
2026-04-26 15:47 53.63485 9.99212 52 ft 114 kts 333°
2026-04-26 15:48 53.64351 9.98461 54 ft 163 kts 332°
2026-04-26 15:48 53.65354 9.97627 743 ft 158 kts 333°
2026-04-26 15:48 53.66348 9.96797 1408 ft 166 kts 332°
2026-04-26 15:48 53.67432 9.95855 1823 ft 185 kts 331°
2026-04-26 15:49 53.68621 9.94807 2246 ft 207 kts 331°
2026-04-26 15:49 53.69925 9.93676 2964 ft 212 kts 332°
2026-04-26 15:49 53.71135 9.92262 3765 ft 213 kts 305°
2026-04-26 15:49 53.71594 9.89890 4348 ft 226 kts 266°
2026-04-26 15:50 53.71289 9.87159 4746 ft 249 kts 253°
2026-04-26 15:50 53.70728 9.84303 4993 ft 258 kts 250°
2026-04-26 15:50 53.70097 9.81466 5004 ft 258 kts 250°
2026-04-26 15:50 53.69463 9.78637 5009 ft 258 kts 250°
2026-04-26 15:51 53.68845 9.75794 5003 ft 258 kts 250°
2026-04-26 15:51 53.68247 9.72937 5012 ft 260 kts 251°
2026-04-26 15:51 53.67656 9.70026 5742 ft 262 kts 252°
2026-04-26 15:51 53.67072 9.67105 6714 ft 264 kts 252°
2026-04-26 15:52 53.66484 9.64157 7561 ft 267 kts 253°
2026-04-26 15:52 53.65890 9.61167 8386 ft 271 kts 254°
2026-04-26 15:52 53.65225 9.58157 9225 ft 277 kts 246°
2026-04-26 15:52 53.64564 9.56289 9760 ft 283 kts 238°
2026-04-26 15:53 53.63013 9.52680 10633 ft 296 kts 238°
2026-04-26 15:53 53.61764 9.49761 10863 ft 319 kts 238°
2026-04-26 15:53 53.60441 9.46671 11384 ft 329 kts 237°
2026-04-26 15:53 53.59085 9.43520 12095 ft 333 kts 237°
2026-04-26 15:54 53.57719 9.40350 12852 ft 336 kts 237°
2026-04-26 15:54 53.56335 9.37145 13598 ft 339 kts 237°
2026-04-26 15:54 53.54944 9.33923 14309 ft 342 kts 237°
2026-04-26 15:54 53.53536 9.30669 14951 ft 345 kts 237°
2026-04-26 15:55 53.52119 9.27401 15603 ft 347 kts 237°
2026-04-26 15:55 53.50691 9.24109 16229 ft 350 kts 237°
2026-04-26 15:55 53.49253 9.20793 16865 ft 352 kts 237°
2026-04-26 15:55 53.47806 9.17456 17506 ft 355 kts 237°
2026-04-26 15:56 53.46347 9.14090 18150 ft 358 kts 237°
2026-04-26 15:56 53.44877 9.10702 18731 ft 360 kts 237°
2026-04-26 15:56 53.43394 9.07293 19274 ft 363 kts 237°
2026-04-26 15:56 53.41899 9.03865 19807 ft 365 kts 237°
2026-04-26 15:57 53.40394 9.00424 20332 ft 368 kts 237°
2026-04-26 15:57 53.38892 8.96992 20834 ft 371 kts 237°
2026-04-26 15:57 53.37362 8.93503 21345 ft 373 kts 237°
2026-04-26 15:57 53.36317 8.91126 21695 ft 375 kts 237°
2026-04-26 15:58 53.34497 8.86234 22326 ft 374 kts 248°
2026-04-26 15:58 53.33545 8.82179 22817 ft 375 kts 253°
2026-04-26 15:58 53.32644 8.78073 23303 ft 377 kts 252°
2026-04-26 15:58 53.31733 8.73946 23767 ft 380 kts 252°
2026-04-26 15:59 53.30806 8.69764 24130 ft 384 kts 252°
2026-04-26 15:59 53.29874 8.65566 24517 ft 386 kts 253°
2026-04-26 15:59 53.29258 8.62779 24784 ft 387 kts 253°
2026-04-26 15:59 53.28026 8.57157 25306 ft 390 kts 253°
2026-04-26 16:00 53.27093 8.52896 25696 ft 391 kts 253°
2026-04-26 16:00 53.26461 8.50004 25958 ft 393 kts 253°
2026-04-26 16:00 53.25291 8.44281 26470 ft 394 kts 255°
2026-04-26 16:00 53.24732 8.41330 26743 ft 395 kts 256°
2026-04-26 16:01 53.23936 8.36987 27113 ft 396 kts 256°
2026-04-26 16:01 53.23136 8.32566 27479 ft 398 kts 256°
2026-04-26 16:01 53.22327 8.28136 27842 ft 400 kts 256°
2026-04-26 16:01 53.21502 8.23693 28206 ft 402 kts 256°
2026-04-26 16:02 53.20660 8.19235 28558 ft 404 kts 256°
2026-04-26 16:02 53.19806 8.14769 28940 ft 405 kts 255°
2026-04-26 16:02 53.18945 8.10292 29305 ft 406 kts 255°
2026-04-26 16:02 53.18375 8.07313 29553 ft 407 kts 256°
2026-04-26 16:03 53.17232 8.01279 29982 ft 409 kts 256°
2026-04-26 16:03 53.16378 7.96744 30313 ft 411 kts 256°
2026-04-26 16:03 53.15522 7.92186 30589 ft 413 kts 256°
2026-04-26 16:03 53.14660 7.87611 30845 ft 415 kts 256°
2026-04-26 16:04 53.13788 7.83022 31092 ft 416 kts 256°
2026-04-26 16:04 53.12916 7.78468 31334 ft 418 kts 255°
2026-04-26 16:04 53.12027 7.73849 31588 ft 419 kts 255°
2026-04-26 16:04 53.11136 7.69232 31937 ft 418 kts 255°
2026-04-26 16:05 53.10246 7.64616 32265 ft 418 kts 255°
2026-04-26 16:05 53.09357 7.60015 32577 ft 418 kts 255°
2026-04-26 16:05 53.08468 7.55406 32902 ft 417 kts 255°
2026-04-26 16:05 53.07579 7.50814 33248 ft 417 kts 255°
2026-04-26 16:06 53.06689 7.46232 33584 ft 416 kts 255°
2026-04-26 16:06 53.05809 7.41708 33924 ft 415 kts 255°
2026-04-26 16:06 53.04918 7.37136 34269 ft 415 kts 256°
2026-04-26 16:06 53.04030 7.32593 34565 ft 414 kts 255°
2026-04-26 16:07 53.03134 7.28039 34832 ft 414 kts 255°
2026-04-26 16:07 53.02234 7.23486 35040 ft 414 kts 255°
2026-04-26 16:07 53.01156 7.19029 35261 ft 418 kts 248°
2026-04-26 16:07 52.99877 7.14687 35479 ft 419 kts 248°
2026-04-26 16:08 52.98597 7.10335 35711 ft 419 kts 248°
2026-04-26 16:08 52.97317 7.05989 35947 ft 418 kts 248°
2026-04-26 16:08 52.96041 7.01655 36174 ft 418 kts 248°
2026-04-26 16:08 52.94765 6.97319 36305 ft 418 kts 248°
2026-04-26 16:09 52.93492 6.93009 36328 ft 415 kts 248°
2026-04-26 16:09 52.90953 6.84436 36329 ft 413 kts 248°
2026-04-26 16:10 52.88427 6.75944 36327 ft 413 kts 248°
2026-04-26 16:10 52.85888 6.67415 36323 ft 413 kts 248°
2026-04-26 16:11 52.83334 6.58891 36326 ft 413 kts 248°
2026-04-26 16:11 52.80777 6.50392 36304 ft 413 kts 248°
2026-04-26 16:12 52.78217 6.41900 36303 ft 413 kts 248°
2026-04-26 16:12 52.74362 6.29182 36312 ft 413 kts 248°
2026-04-26 16:13 52.71782 6.20706 36316 ft 413 kts 248°
2026-04-26 16:13 52.69215 6.12299 36315 ft 413 kts 248°
2026-04-26 16:14 52.66622 6.03845 36321 ft 413 kts 248°
2026-04-26 16:15 52.62726 5.91167 36321 ft 413 kts 247°
2026-04-26 16:15 52.60126 5.82730 36304 ft 413 kts 248°
2026-04-26 16:16 52.56213 5.70104 36321 ft 413 kts 247°
2026-04-26 16:16 52.53603 5.61731 36338 ft 413 kts 247°
2026-04-26 16:17 52.50977 5.53347 36336 ft 413 kts 247°
2026-04-26 16:17 52.48343 5.44983 36324 ft 412 kts 247°
2026-04-26 16:18 52.44391 5.32467 36330 ft 412 kts 247°
2026-04-26 16:19 52.40435 5.19970 36315 ft 411 kts 247°
2026-04-26 16:20 52.36484 5.07569 36319 ft 411 kts 246°
2026-04-26 16:20 52.32503 4.95147 36328 ft 411 kts 246°
2026-04-26 16:21 52.29847 4.86887 36317 ft 410 kts 246°
2026-04-26 16:21 52.27193 4.78646 36320 ft 410 kts 246°
2026-04-26 16:22 52.24525 4.70415 36322 ft 410 kts 246°
2026-04-26 16:22 52.21862 4.62200 36303 ft 410 kts 246°
2026-04-26 16:23 52.19186 4.53985 36280 ft 409 kts 246°
2026-04-26 16:23 52.16506 4.45794 36286 ft 409 kts 246°
2026-04-26 16:24 52.13838 4.37666 36292 ft 410 kts 246°
2026-04-26 16:24 52.11131 4.29440 36298 ft 410 kts 246°
2026-04-26 16:25 52.08530 4.21569 36295 ft 410 kts 246°
2026-04-26 16:25 52.05834 4.13403 36295 ft 410 kts 246°
2026-04-26 16:26 52.03586 4.06627 36300 ft 410 kts 246°
2026-04-26 16:26 52.00403 3.97093 36298 ft 410 kts 246°
2026-04-26 16:27 51.97681 3.88966 36287 ft 410 kts 245°
2026-04-26 16:27 51.94972 3.80913 36300 ft 409 kts 245°
2026-04-26 16:28 51.92241 3.72810 36307 ft 409 kts 245°
2026-04-26 16:28 51.89512 3.64723 36317 ft 409 kts 245°
2026-04-26 16:29 51.86774 3.56644 36318 ft 409 kts 245°
2026-04-26 16:29 51.84028 3.48562 36320 ft 409 kts 245°
2026-04-26 16:30 51.81280 3.40521 36325 ft 409 kts 245°
2026-04-26 16:30 51.78550 3.32527 36326 ft 409 kts 245°
2026-04-26 16:31 51.75792 3.24497 36318 ft 408 kts 245°
2026-04-26 16:31 51.73394 3.16253 36311 ft 403 kts 257°
2026-04-26 16:32 51.72800 3.11882 35832 ft 395 kts 265°
2026-04-26 16:32 51.72545 3.08985 35293 ft 391 kts 265°
2026-04-26 16:32 51.72055 3.03225 34321 ft 383 kts 265°
2026-04-26 16:32 51.71705 2.99064 33505 ft 376 kts 265°
2026-04-26 16:33 51.71345 2.94840 32902 ft 374 kts 265°
2026-04-26 16:33 51.70991 2.90746 32642 ft 373 kts 265°
2026-04-26 16:33 51.70633 2.86635 32258 ft 367 kts 264°
2026-04-26 16:33 51.70276 2.82571 31825 ft 363 kts 264°
2026-04-26 16:34 51.69920 2.78550 31398 ft 360 kts 264°
2026-04-26 16:34 51.69566 2.74570 30984 ft 356 kts 264°
2026-04-26 16:34 51.69216 2.70647 30580 ft 353 kts 264°
2026-04-26 16:34 51.68867 2.66753 30137 ft 350 kts 263°
2026-04-26 16:35 51.68523 2.62889 29693 ft 345 kts 264°
2026-04-26 16:35 51.68185 2.59090 29280 ft 341 kts 263°
2026-04-26 16:35 51.67845 2.55320 28878 ft 337 kts 263°
2026-04-26 16:35 51.67512 2.51645 28488 ft 333 kts 263°
2026-04-26 16:36 51.67179 2.47979 28091 ft 330 kts 263°
2026-04-26 16:36 51.66847 2.44335 27697 ft 327 kts 263°
2026-04-26 16:36 51.66518 2.40727 27299 ft 325 kts 263°
2026-04-26 16:36 51.66190 2.37132 26905 ft 324 kts 263°
2026-04-26 16:37 51.65862 2.33541 26504 ft 323 kts 263°
2026-04-26 16:37 51.65534 2.29972 26102 ft 322 kts 262°
2026-04-26 16:37 51.65204 2.26406 25691 ft 321 kts 262°
2026-04-26 16:37 51.64985 2.24060 25418 ft 320 kts 262°
2026-04-26 16:38 51.64541 2.19318 24848 ft 320 kts 262°
2026-04-26 16:38 51.64206 2.15783 24418 ft 319 kts 262°
2026-04-26 16:38 51.63872 2.12251 23987 ft 319 kts 262°
2026-04-26 16:38 51.63543 2.08762 23511 ft 319 kts 262°
2026-04-26 16:39 51.63212 2.05238 23075 ft 318 kts 262°
2026-04-26 16:39 51.62887 2.01733 22656 ft 316 kts 262°
2026-04-26 16:39 51.62561 1.98199 22232 ft 315 kts 262°
2026-04-26 16:39 51.62244 1.94767 21825 ft 314 kts 262°
2026-04-26 16:40 51.61921 1.91302 21406 ft 313 kts 262°
2026-04-26 16:40 51.61596 1.87845 20995 ft 312 kts 260°
2026-04-26 16:40 51.61001 1.84483 20584 ft 312 kts 248°
2026-04-26 16:40 51.59964 1.81423 20173 ft 313 kts 236°
2026-04-26 16:41 51.58563 1.78722 19767 ft 314 kts 230°
2026-04-26 16:41 51.57112 1.76097 19364 ft 315 kts 230°
2026-04-26 16:41 51.55657 1.73455 18961 ft 315 kts 230°
2026-04-26 16:41 51.54201 1.70820 18553 ft 316 kts 230°
2026-04-26 16:42 51.52747 1.68189 18114 ft 315 kts 230°
2026-04-26 16:42 51.51291 1.65556 17714 ft 314 kts 230°
2026-04-26 16:42 51.49847 1.62924 17321 ft 313 kts 232°
2026-04-26 16:42 51.48670 1.60007 16937 ft 310 kts 245°
2026-04-26 16:43 51.47897 1.56847 16562 ft 309 kts 251°
2026-04-26 16:43 51.47164 1.53598 16188 ft 308 kts 250°
2026-04-26 16:43 51.46425 1.50376 15806 ft 308 kts 250°
2026-04-26 16:43 51.45681 1.47154 15432 ft 307 kts 250°
2026-04-26 16:44 51.44938 1.43943 15056 ft 307 kts 250°
2026-04-26 16:44 51.44187 1.40741 14681 ft 307 kts 247°
2026-04-26 16:44 51.43127 1.37782 14305 ft 307 kts 233°
2026-04-26 16:44 51.41645 1.35351 14085 ft 304 kts 219°
2026-04-26 16:45 51.39952 1.33346 13885 ft 301 kts 218°
2026-04-26 16:45 51.38277 1.31371 13683 ft 299 kts 218°
2026-04-26 16:45 51.36605 1.29394 13491 ft 297 kts 218°
2026-04-26 16:45 51.34943 1.27426 13284 ft 297 kts 218°
2026-04-26 16:46 51.33308 1.25484 13101 ft 297 kts 218°
2026-04-26 16:46 51.31652 1.23517 12875 ft 295 kts 218°
2026-04-26 16:46 51.30237 1.21198 12618 ft 290 kts 238°
2026-04-26 16:46 51.29376 1.18313 12287 ft 285 kts 248°
2026-04-26 16:47 51.28627 1.15374 11706 ft 286 kts 248°
2026-04-26 16:47 51.28133 1.13423 11451 ft 286 kts 248°
2026-04-26 16:47 51.27388 1.10480 11102 ft 285 kts 248°
2026-04-26 16:47 51.26647 1.07557 10776 ft 283 kts 248°
2026-04-26 16:48 51.25905 1.04638 10436 ft 282 kts 248°
2026-04-26 16:48 51.25170 1.01759 10173 ft 278 kts 248°
2026-04-26 16:48 51.24437 0.98898 9779 ft 279 kts 248°
2026-04-26 16:48 51.23705 0.96035 9387 ft 278 kts 248°
2026-04-26 16:49 51.22971 0.93166 8972 ft 278 kts 248°
2026-04-26 16:49 51.22252 0.90360 8597 ft 276 kts 248°
2026-04-26 16:49 51.21524 0.87523 8200 ft 275 kts 248°
2026-04-26 16:49 51.20800 0.84707 7823 ft 274 kts 248°
2026-04-26 16:50 51.20077 0.81896 7421 ft 274 kts 248°
2026-04-26 16:50 51.19357 0.79097 7249 ft 274 kts 248°
2026-04-26 16:50 51.18632 0.76281 7252 ft 275 kts 248°
2026-04-26 16:50 51.17901 0.73451 7248 ft 276 kts 247°
2026-04-26 16:51 51.17172 0.70628 7244 ft 275 kts 247°
2026-04-26 16:51 51.16440 0.67801 7240 ft 275 kts 247°
2026-04-26 16:51 51.15711 0.64984 7235 ft 276 kts 247°
2026-04-26 16:51 51.14979 0.62163 7229 ft 276 kts 247°
2026-04-26 16:52 51.14247 0.59338 7226 ft 276 kts 247°
2026-04-26 16:52 51.13762 0.57470 7224 ft 276 kts 247°
2026-04-26 16:52 51.12778 0.53695 7219 ft 275 kts 247°
2026-04-26 16:52 51.12043 0.50885 7220 ft 275 kts 247°
2026-04-26 16:53 51.11307 0.48070 7220 ft 275 kts 247°
2026-04-26 16:53 51.10571 0.45255 7221 ft 276 kts 247°
2026-04-26 16:53 51.09846 0.42474 7220 ft 276 kts 247°
2026-04-26 16:53 51.09111 0.39655 7220 ft 276 kts 247°
2026-04-26 16:54 51.08376 0.36849 7222 ft 275 kts 247°
2026-04-26 16:54 51.07638 0.34033 7225 ft 275 kts 247°
2026-04-26 16:54 51.06903 0.31246 6944 ft 273 kts 246°
2026-04-26 16:54 51.06167 0.28461 6525 ft 273 kts 247°
2026-04-26 16:55 51.05435 0.25689 6114 ft 272 kts 246°
2026-04-26 16:55 51.04704 0.22927 5705 ft 271 kts 247°
2026-04-26 16:55 51.03976 0.20173 5308 ft 270 kts 247°
2026-04-26 16:55 51.03251 0.17426 4907 ft 269 kts 247°
2026-04-26 16:56 51.01940 0.11883 4084 ft 267 kts 259°
2026-04-26 16:56 51.01837 0.08967 3992 ft 265 kts 274°
2026-04-26 16:56 51.01975 0.06009 4001 ft 270 kts 274°
2026-04-26 16:57 51.02103 0.03075 4003 ft 269 kts 274°
2026-04-26 16:57 51.02227 0.00128 3679 ft 266 kts 274°
2026-04-26 16:57 51.02486 -0.05739 3010 ft 265 kts 274°
2026-04-26 16:58 51.02618 -0.08670 3013 ft 266 kts 275°
2026-04-26 16:58 51.02705 -0.10615 2998 ft 255 kts 274°
2026-04-26 16:58 51.02991 -0.16805 3014 ft 236 kts 275°
2026-04-26 16:59 51.03153 -0.19391 3000 ft 235 kts 276°
2026-04-26 16:59 51.03498 -0.24563 3005 ft 235 kts 276°
2026-04-26 17:00 51.03841 -0.29734 3014 ft 236 kts 276°
2026-04-26 17:00 51.04185 -0.34915 3017 ft 237 kts 276°
2026-04-26 17:00 51.04359 -0.37521 3001 ft 237 kts 276°
2026-04-26 17:01 51.04531 -0.40119 3020 ft 237 kts 276°
2026-04-26 17:01 51.04707 -0.42672 2999 ft 226 kts 281°
2026-04-26 17:01 51.05270 -0.44895 3004 ft 211 kts 304°
2026-04-26 17:01 51.06280 -0.46455 3009 ft 198 kts 328°
2026-04-26 17:02 51.07518 -0.47282 3011 ft 191 kts 351°
2026-04-26 17:02 51.08822 -0.47292 3017 ft 187 kts 14°
2026-04-26 17:02 51.10011 -0.46534 3025 ft 185 kts 36°
2026-04-26 17:02 51.10917 -0.45155 3007 ft 182 kts 58°
2026-04-26 17:03 51.11433 -0.43309 2979 ft 182 kts 78°
2026-04-26 17:03 51.11706 -0.41362 2819 ft 183 kts 77°
2026-04-26 17:03 51.11981 -0.39390 2608 ft 181 kts 78°
2026-04-26 17:03 51.12255 -0.37430 2357 ft 181 kts 78°
2026-04-26 17:04 51.12527 -0.35484 2118 ft 176 kts 79°
2026-04-26 17:04 51.12783 -0.33651 1873 ft 165 kts 79°
2026-04-26 17:04 51.13030 -0.31882 1655 ft 163 kts 79°
2026-04-26 17:04 51.13273 -0.30138 1440 ft 161 kts 79°
2026-04-26 17:05 51.13512 -0.28411 1200 ft 156 kts 80°
2026-04-26 17:05 51.13738 -0.26756 992 ft 149 kts 78°
2026-04-26 17:05 51.13971 -0.25182 804 ft 143 kts 78°
2026-04-26 17:05 51.14181 -0.23634 641 ft 141 kts 78°
2026-04-26 17:06 51.14392 -0.22111 428 ft 140 kts 79°
2026-04-26 17:06 51.14597 -0.20601 248 ft 139 kts 78°
2026-04-26 17:06 51.14794 -0.19183 208 ft 121 kts 78°
2026-04-26 17:06 51.14932 -0.18151 212 ft 61 kts 79°
2026-04-26 17:07 51.15042 -0.17830 213 ft 20 kts 54°
2026-04-26 17:07 51.15113 -0.17753 206 ft 7 kts 359°
2026-04-26 17:07 51.15152 -0.17775 211 ft 7 kts 322°
2026-04-26 17:07 51.15157 -0.17901 208 ft 17 kts 255°
2026-04-26 17:08 51.15143 -0.17991 209 ft 0 kts 258°
2026-04-26 17:14 51.15143 -0.17992 205 ft 0 kts 258°
2026-04-26 17:14 51.15139 -0.18017 208 ft 6 kts 255°
2026-04-26 17:15 51.15198 -0.18207 208 ft 18 kts 346°
2026-04-26 17:15 51.15334 -0.18256 215 ft 21 kts 347°
2026-04-26 17:15 51.15483 -0.18308 207 ft 23 kts 348°
2026-04-26 17:16 51.15585 -0.18345 214 ft 8 kts 347°
2026-04-26 17:16 51.15642 -0.18327 206 ft 10 kts 49°
2026-04-26 17:16 51.15663 -0.18215 213 ft 11 kts 77°
2026-04-26 17:16 51.15681 -0.18084 211 ft 13 kts 78°
2026-04-26 17:17 51.15702 -0.17937 204 ft 14 kts 77°
2026-04-26 17:17 51.15704 -0.17817 215 ft 8 kts 131°
2026-04-26 17:17 51.15667 -0.17793 210 ft 2 kts 167°
2026-04-26 17:17 51.15655 -0.17788 210 ft 2 kts 167°
2026-04-26 17:18 51.15650 -0.17787 208 ft 0 kts 168°